Seneffe, Belgium
Current Conditions -  °F | °C
As of 1:50 AM on Saturday 29 Nov 2014 (Local Time) from EBCI Reporting Station
Clear Clear  
Wind Chill: 35°   Ceiling: Unl
Heat Index: 39°   Visibility: 4mi
Dew Point: 37°   Wind: 6mph
Humidity: 93%   Direction: 70°ENE
Pressure: 29.8"   Gusts: NA
Location:  50.53°N, 4.26°E
Report Text: EBCI 290050Z 07005KT 7000 NSC 04/03 Q1009 NOSIG
Loading
Personal Weather Stations






























Interactive Weather Map New forecast layout! Learn more

10-Day Weather Forecast

Advertisements
Track Severe Weather on mobile